GW7091 Weather Reports


time (UTC)temp
C
wind
direction
speed
KPH
gust
KPH
rain 1hr
cm
rain 24hr
cm
rain mn
cm
humidity
%
barometer
mb
20260509000600 19 261 3.2 9.7 0.00 0.00 0.00 36 1044.0
20260509000056 19 270 4.8 6.4 0.00 0.00 0.00 35 1043.8
20260508235554 19 237 6.4 9.7 0.00 0.00 0.00 34 1044.1
20260508235050 20 285 3.2 6.4 0.00 0.00 0.00 35 1044.3
20260508234548 20 283 1.6 6.4 0.00 0.00 0.00 34 1044.1
20260508234044 20 256 3.2 4.8 0.00 0.00 0.00 34 1044.1
20260508233543 20 290 3.2 6.4 0.00 0.00 0.00 34 1044.3
20260508233040 20 259 1.6 3.2 0.00 0.00 0.00 35 1044.4
20260508232537 20 240 3.2 12.9 0.00 0.00 0.00 35 1044.6
20260508232034 20 264 1.6 6.4 0.00 0.00 0.00 34 1044.4
20260508231532 20 214 3.2 11.3 0.00 0.00 0.00 35 1044.5
20260508231029 20 277 4.8 9.7 0.00 0.00 0.00 33 1044.3
20260508230525 20 216 4.8 9.7 0.00 0.00 0.00 34 1044.5
20260508230022 21 278 3.2 3.2 0.00 0.00 0.00 35 1044.5
20260508225519 21 161 3.2 4.8 0.00 0.00 0.00 33 1044.5
20260508225016 21 62 1.6 4.8 0.00 0.00 0.00 33 1044.2
20260508224514 21 235 1.6 4.8 0.00 0.00 0.00 33 1044.3
20260508224011 21 260 4.8 6.4 0.00 0.00 0.00 32 1044.2
20260508223509 21 243 3.2 9.7 0.00 0.00 0.00 32 1044.4
20260508223006 22 265 6.4 14.5 0.00 0.00 0.00 31 1044.1
20260508222503 22 251 1.6 9.7 0.00 0.00 0.00 33 1044.3
20260508221959 21 292 4.8 6.4 0.00 0.00 0.00 31 1044.3
20260508221456 22 220 6.4 11.3 0.00 0.00 0.00 31 1044.1
20260508220952 22 297 1.6 4.8 0.00 0.00 0.00 33 1044.2
20260508220448 21 299 1.6 12.9 0.00 0.00 0.00 31 1044.0
20260508215945 21 234 6.4 16.1 0.00 0.00 0.00 31 1044.3
20260508215442 22 268 4.8 16.1 0.00 0.00 0.00 33 1044.4
20260508214938 22 237 3.2 6.4 0.00 0.00 0.00 31 1044.4
20260508214437 22 227 0.0 9.7 0.00 0.00 0.00 34 1044.0
20260508213932 21 235 3.2 4.8 0.00 0.00 0.00 32 1044.2
20260508213430 22 300 4.8 9.7 0.00 0.00 0.00 31 1043.9
20260508212925 22 253 1.6 6.4 0.00 0.00 0.00 30 1043.8
20260508212422 22 312 3.2 9.7 0.00 0.00 0.00 32 1044.0
20260508211918 22 235 1.6 4.8 0.00 0.00 0.00 33 1044.2
20260508211414 22 303 8.0 11.3 0.00 0.00 0.00 29 1044.4
20260508210911 22 293 3.2 9.7 0.00 0.00 0.00 33 1044.4
20260508210408 22 309 6.4 9.7 0.00 0.00 0.00 29 1044.7
20260508205904 22 303 3.2 11.3 0.00 0.00 0.00 34 1044.8
20260508205401 22 262 3.2 4.8 0.00 0.00 0.00 35 1044.6
20260508204857 22 292 0.0 6.4 0.00 0.00 0.00 38 1044.8
20260508204354 22 199 8.0 11.3 0.00 0.00 0.00 31 1044.9
20260508203850 22 239 9.7 12.9 0.00 0.00 0.00 31 1045.0
20260508203346 22 186 3.2 11.3 0.00 0.00 0.00 34 1045.1
20260508202842 22 230 1.6 11.3 0.00 0.00 0.00 34 1045.3
20260508202340 22 283 1.6 4.8 0.00 0.00 0.00 35 1045.5
20260508201837 22 225 11.3 16.1 0.00 0.00 0.00 34 1045.4
20260508201334 22 314 6.4 12.9 0.00 0.00 0.00 33 1045.5
20260508200830 21 298 3.2 9.7 0.00 0.00 0.00 35 1045.4
20260508200327 21 202 11.3 20.9 0.00 0.00 0.00 33 1045.3
20260508195822 21 270 4.8 14.5 0.00 0.00 0.00 35 1045.7
20260508195320 21 237 3.2 4.8 0.00 0.00 0.00 35 1045.3
20260508194816 21 287 14.5 17.7 0.00 0.00 0.00 30 1045.3
20260508194313 21 235 11.3 12.9 0.00 0.00 0.00 32 1045.5
20260508193810 21 281 8.0 16.1 0.00 0.00 0.00 34 1045.7
20260508193307 21 264 4.8 16.1 0.00 0.00 0.00 33 1045.3
20260508192803 21 173 6.4 9.7 0.00 0.00 0.00 35 1045.4
20260508192300 21 61 4.8 4.8 0.00 0.00 0.00 31 1045.5
20260508191757 21 262 8.0 22.5 0.00 0.00 0.00 31 1045.7
20260508191254 21 160 3.2 9.7 0.00 0.00 0.00 33 1045.7
20260508190752 21 344 4.8 12.9 0.00 0.00 0.00 37 1045.7
20260508190247 21 242 1.6 14.5 0.00 0.00 0.00 38 1045.9
20260508185744 21 199 11.3 16.1 0.00 0.00 0.00 31 1045.9
20260508185242 21 181 9.7 12.9 0.00 0.00 0.00 33 1046.0
20260508184738 21 145 4.8 12.9 0.00 0.00 0.00 35 1046.3
20260508184236 21 205 8.0 11.3 0.00 0.00 0.00 34 1046.0
20260508183732 21 256 4.8 11.3 0.00 0.00 0.00 38 1046.2
20260508183229 21 263 6.4 11.3 0.00 0.00 0.00 34 1046.0
20260508182725 21 323 8.0 11.3 0.00 0.00 0.00 31 1046.2
20260508182222 20 249 3.2 12.9 0.00 0.00 0.00 36 1046.5
20260508181718 21 244 4.8 14.5 0.00 0.00 0.00 32 1046.9
20260508181215 20 252 4.8 9.7 0.00 0.00 0.00 39 1046.8
20260508180711 20 262 6.4 17.7 0.00 0.00 0.00 37 1047.3
20260508180208 21 206 4.8 12.9 0.00 0.00 0.00 36 1047.1
20260508175705 21 325 3.2 6.4 0.00 0.00 0.00 36 1047.1
20260508175201 21 291 4.8 9.7 0.00 0.00 0.00 41 1047.6
20260508174659 21 181 4.8 9.7 0.00 0.00 0.00 36 1047.3
20260508174155 20 231 8.0 11.3 0.00 0.00 0.00 37 1047.7
20260508173653 20 245 1.6 4.8 0.00 0.00 0.00 40 1047.9
20260508173148 20 300 3.2 9.7 0.00 0.00 0.00 37 1047.6
20260508172646 20 255 9.7 14.5 0.00 0.00 0.00 35 1047.9
20260508172143 20 269 6.4 9.7 0.00 0.00 0.00 36 1048.0
20260508171639 20 239 1.6 4.8 0.00 0.00 0.00 39 1048.0
20260508171136 20 275 3.2 9.7 0.00 0.00 0.00 41 1048.2
20260508170633 20 241 4.8 9.7 0.00 0.00 0.00 38 1048.2
20260508170130 20 278 3.2 4.8 0.00 0.00 0.00 41 1048.4
20260508165627 20 299 1.6 9.7 0.00 0.00 0.00 38 1048.4
20260508165124 20 233 11.3 16.1 0.00 0.00 0.00 36 1048.4
20260508164620 20 244 8.0 9.7 0.00 0.00 0.00 37 1048.5
20260508164118 20 210 3.2 6.4 0.00 0.00 0.00 40 1048.6
20260508163615 20 322 0.0 6.4 0.00 0.00 0.00 37 1048.9
20260508163112 20 239 0.0 6.4 0.00 0.00 0.00 40 1049.0
20260508162608 19 252 3.2 9.7 0.00 0.00 0.00 44 1048.8
20260508162106 19 209 6.4 9.7 0.00 0.00 0.00 39 1049.0
20260508161602 18 210 8.0 12.9 0.00 0.00 0.00 38 1049.0
20260508161100 19 226 14.5 14.5 0.00 0.00 0.00 36 1049.2
20260508160558 19 244 9.7 14.5 0.00 0.00 0.00 38 1049.1
20260508160055 18 203 4.8 14.5 0.00 0.00 0.00 37 1049.5
20260508155552 18 283 1.6 9.7 0.00 0.00 0.00 39 1049.3
20260508155049 18 307 6.4 9.7 0.00 0.00 0.00 37 1049.3
20260508154546 18 217 4.8 9.7 0.00 0.00 0.00 37 1049.6
20260508154043 18 284 4.8 6.4 0.00 0.00 0.00 41 1049.5
20260508153539 18 193 8.0 9.7 0.00 0.00 0.00 36 1049.9
20260508153036 18 269 9.7 11.3 0.00 0.00 0.00 39 1049.7
20260508152533 18 312 1.6 9.7 0.00 0.00 0.00 45 1049.7
20260508152028 18 246 6.4 12.9 0.00 0.00 0.00 39 1049.6
20260508151525 18 218 1.6 6.4 0.00 0.00 0.00 41 1050.0
20260508151022 18 220 3.2 6.4 0.00 0.00 0.00 45 1049.7
20260508150519 18 266 4.8 12.9 0.00 0.00 0.00 41 1049.8
20260508150015 18 218 1.6 11.3 0.00 0.00 0.00 42 1049.7
20260508145512 18 248 4.8 12.9 0.00 0.00 0.00 42 1049.8
20260508145008 18 216 6.4 6.4 0.00 0.00 0.00 41 1049.8
20260508144506 17 272 3.2 11.3 0.00 0.00 0.00 42 1049.8
20260508144003 18 233 8.0 11.3 0.00 0.00 0.00 41 1049.8
20260508143500 18 316 3.2 4.8 0.00 0.00 0.00 46 1049.9
20260508142956 17 231 3.2 4.8 0.00 0.00 0.00 43 1049.8
20260508142454 17 263 3.2 4.8 0.00 0.00 0.00 42 1049.9
20260508141950 17 211 1.6 4.8 0.00 0.00 0.00 43 1050.0
20260508141447 17 280 1.6 4.8 0.00 0.00 0.00 45 1049.9
20260508140945 17 308 3.2 4.8 0.00 0.00 0.00 51 1049.9
20260508140442 16 282 3.2 6.4 0.00 0.00 0.00 49 1049.8
20260508135937 16 259 3.2 4.8 0.00 0.00 0.00 50 1050.0
20260508135434 16 225 4.8 6.4 0.00 0.00 0.00 48 1050.0
20260508134930 16 230 3.2 9.7 0.00 0.00 0.00 53 1049.8
20260508134427 16 213 4.8 9.7 0.00 0.00 0.00 48 1049.9
20260508133924 15 226 3.2 3.2 0.00 0.00 0.00 55 1050.0
20260508133421 15 247 3.2 4.8 0.00 0.00 0.00 57 1050.2
20260508132918 14 182 1.6 4.8 0.00 0.00 0.00 64 1050.1
20260508132416 14 312 3.2 4.8 0.00 0.00 0.00 58 1050.0
20260508131913 14 215 1.6 6.4 0.00 0.00 0.00 62 1050.1
20260508131408 13 191 3.2 4.8 0.00 0.00 0.00 63 1049.8
20260508130905 13 215 1.6 3.2 0.00 0.00 0.00 64 1049.9
20260508130402 13 200 3.2 3.2 0.00 0.00 0.00 64 1049.7
20260508125858 12 199 1.6 1.6 0.00 0.00 0.00 68 1050.0
20260508125354 12 152 1.6 1.6 0.00 0.00 0.00 68 1049.7
20260508124852 11 210 1.6 1.6 0.00 0.00 0.00 71 1050.1
20260508124349 12 204 1.6 1.6 0.00 0.00 0.00 69 1049.9
20260508123847 11 202 0.0 0.0 0.00 0.00 0.00 74 1050.1
20260508123345 10 204 1.6 1.6 0.00 0.00 0.00 75 1049.7
20260508122841 10 205 1.6 1.6 0.00 0.00 0.00 77 1049.6
20260508122338 10 216 0.0 0.0 0.00 0.00 0.00 78 1049.9
20260508121835 8 216 0.0 0.0 0.00 0.00 0.00 82 1050.0
20260508121334 8 216 1.6 1.6 0.00 0.00 0.00 80 1049.9
20260508120831 9 216 0.0 0.0 0.00 0.00 0.00 78 1050.0
20260508120329 8 216 0.0 0.0 0.00 0.00 0.00 84 1049.8
20260508115826 7 216 0.0 0.0 0.00 0.00 0.00 90 1050.0
20260508115324 7 216 0.0 0.0 0.00 0.00 0.00 93 1049.8
20260508114820 6 216 0.0 0.0 0.00 0.00 0.00 97 1050.0
20260508114317 5 216 0.0 0.0 0.00 0.00 0.00 97 1049.8
20260508113813 5 216 0.0 0.0 0.00 0.00 0.00 97 1049.6
20260508113312 5 216 0.0 0.0 0.00 0.00 0.00 98 1049.7
20260508112808 4 216 0.0 0.0 0.00 0.00 0.00 98 1049.5
20260508112307 3 216 0.0 0.0 0.00 0.00 0.00 98 1049.5
20260508111801 3 216 0.0 0.0 0.00 0.00 0.00 98 1049.4
20260508111259 2 216 0.0 0.0 0.00 0.00 0.00 98 1049.5
20260508110756 1 216 0.0 0.0 0.00 0.00 0.00 98 1049.4
20260508110253 1 216 0.0 0.0 0.00 0.00 0.00 98 1049.3
20260508105753 1 216 0.0 0.0 0.00 0.00 0.00 97 1049.3
20260508105250 1 216 0.0 0.0 0.00 0.00 0.00 97 1049.5
20260508104747 1 216 0.0 0.0 0.00 0.00 0.00 98 1049.1
20260508104244 1 216 0.0 0.0 0.00 0.00 0.00 98 1049.1
20260508103742 1 216 0.0 0.0 0.00 0.00 0.00 98 1049.1
20260508103238 1 216 0.0 0.0 0.00 0.00 0.00 97 1049.1
20260508102735 1 216 0.0 0.0 0.00 0.00 0.00 97 1049.1
20260508102234 1 216 0.0 0.0 0.00 0.00 0.00 97 1048.8
20260508101730 1 216 0.0 0.0 0.00 0.00 0.00 97 1048.9
20260508101228 1 216 0.0 0.0 0.00 0.00 0.00 97 1048.9
20260508100726 1 216 0.0 0.0 0.00 0.00 0.00 97 1049.0
20260508100224 1 216 0.0 0.0 0.00 0.00 0.00 97 1048.9
20260508095719 1 216 0.0 0.0 0.00 0.00 0.00 97 1048.7
20260508095217 1 216 0.0 0.0 0.00 0.00 0.00 97 1048.9
20260508094713 1 216 0.0 0.0 0.00 0.00 0.00 97 1049.0
20260508094210 1 216 0.0 0.0 0.00 0.00 0.00 97 1049.0
20260508093707 1 216 0.0 0.0 0.00 0.00 0.00 97 1048.8
20260508093206 1 216 0.0 0.0 0.00 0.00 0.00 97 1049.1
20260508092702 1 216 0.0 0.0 0.00 0.00 0.00 97 1048.9
20260508092201 1 216 0.0 0.0 0.00 0.00 0.00 97 1049.0
20260508091658 1 216 0.0 0.0 0.00 0.00 0.00 97 1049.1
20260508091155 1 216 0.0 0.0 0.00 0.00 0.00 97 1049.2
20260508090652 1 216 0.0 0.0 0.00 0.00 0.00 97 1049.2
20260508090150 1 216 0.0 0.0 0.00 0.00 0.00 97 1048.9
20260508085645 1 216 0.0 0.0 0.00 0.00 0.00 97 1049.2
20260508085143 1 216 0.0 0.0 0.00 0.00 0.00 97 1049.2
20260508084639 1 216 0.0 0.0 0.00 0.00 0.00 97 1049.1
20260508084136 1 216 0.0 0.0 0.00 0.00 0.00 97 1049.0
20260508083634 1 216 0.0 0.0 0.00 0.00 0.00 97 1049.1
20260508083131 1 216 0.0 0.0 0.00 0.00 0.00 97 1049.3
20260508082626 1 216 0.0 0.0 0.00 0.00 0.00 97 1049.0
20260508082124 1 216 0.0 0.0 0.00 0.00 0.00 97 1049.3
20260508081621 1 216 0.0 0.0 0.00 0.00 0.00 97 1049.4
20260508081118 1 216 0.0 0.0 0.00 0.00 0.00 97 1049.1
20260508080615 1 216 0.0 0.0 0.00 0.00 0.00 97 1049.0
20260508080113 1 216 0.0 0.0 0.00 0.00 0.00 97 1049.1
20260508075609 1 216 0.0 0.0 0.00 0.00 0.00 97 1049.0
20260508075106 1 216 0.0 0.0 0.00 0.00 0.00 97 1049.2
20260508074604 1 216 0.0 0.0 0.00 0.00 0.00 97 1049.1
20260508074101 1 216 0.0 0.0 0.00 0.00 0.00 97 1049.0
20260508073558 1 216 0.0 0.0 0.00 0.00 0.00 97 1049.3
20260508073056 1 216 0.0 0.0 0.00 0.00 0.00 97 1049.1
20260508072551 1 216 0.0 0.0 0.00 0.00 0.00 97 1049.0
20260508072048 1 216 0.0 0.0 0.00 0.00 0.00 97 1048.9
20260508071546 1 216 0.0 0.0 0.00 0.00 0.00 96 1049.2
20260508071044 1 216 0.0 0.0 0.00 0.00 0.00 96 1049.0
20260508070541 1 216 0.0 0.0 0.00 0.00 0.00 96 1049.0
20260508070040 1 216 0.0 1.6 0.00 0.00 0.00 96 1049.0
20260508065537 1 216 0.0 0.0 0.00 0.00 0.00 96 1049.2
20260508065035 1 216 0.0 0.0 0.00 0.00 0.00 96 1049.1
20260508064532 1 216 0.0 0.0 0.00 0.00 0.00 96 1049.1
20260508064030 1 216 0.0 0.0 0.00 0.00 0.00 96 1049.4
20260508063527 2 216 0.0 0.0 0.00 0.00 0.00 96 1049.2
20260508063025 2 216 0.0 0.0 0.00 0.00 0.00 96 1049.3
20260508062522 2 216 0.0 0.0 0.00 0.00 0.00 96 1049.3
20260508062019 2 216 0.0 0.0 0.00 0.00 0.00 96 1049.1
20260508061517 2 216 0.0 0.0 0.00 0.00 0.00 96 1049.2
20260508061013 2 216 0.0 0.0 0.00 0.00 0.00 96 1049.1
20260508060510 2 216 0.0 0.0 0.00 0.00 0.00 96 1049.3
20260508060008 2 221 1.6 1.6 0.00 0.00 0.00 96 1049.3
20260508055503 2 235 0.0 1.6 0.00 0.00 0.00 96 1049.6
20260508055000 2 19 0.0 0.0 0.00 0.00 0.00 96 1049.4
20260508054457 2 19 0.0 0.0 0.00 0.00 0.00 96 1049.5
20260508053953 2 19 0.0 0.0 0.00 0.00 0.00 96 1049.6
20260508053450 2 19 0.0 0.0 0.00 0.00 0.00 96 1049.4
20260508052949 2 19 0.0 0.0 0.00 0.00 0.00 96 1049.4
20260508052446 2 19 0.0 0.0 0.00 0.00 0.00 96 1049.6
20260508051942 2 19 0.0 0.0 0.00 0.00 0.00 95 1049.6
20260508051438 2 19 0.0 0.0 0.00 0.00 0.00 95 1049.3
20260508050934 2 19 0.0 0.0 0.00 0.00 0.00 96 1049.4
20260508050431 2 19 0.0 0.0 0.00 0.00 0.00 96 1049.6
20260508045927 2 19 0.0 0.0 0.00 0.00 0.00 95 1049.6
20260508045425 2 19 0.0 0.0 0.00 0.00 0.00 95 1049.6
20260508044922 3 19 0.0 0.0 0.00 0.00 0.00 95 1049.6
20260508044419 3 19 0.0 0.0 0.00 0.00 0.00 96 1049.2
20260508043914 2 19 0.0 0.0 0.00 0.00 0.00 95 1049.2
20260508043412 2 19 0.0 0.0 0.00 0.00 0.00 95 1049.3
20260508042908 3 19 0.0 0.0 0.00 0.00 0.00 95 1049.3
20260508042406 3 19 0.0 0.0 0.00 0.00 0.00 95 1049.3
20260508041903 3 19 0.0 0.0 0.00 0.00 0.00 95 1049.2
20260508041359 3 19 0.0 0.0 0.00 0.00 0.00 95 1049.1
20260508040855 3 19 0.0 0.0 0.00 0.00 0.00 95 1049.3
20260508040353 3 19 0.0 0.0 0.00 0.00 0.00 95 1049.3
20260508035851 3 19 0.0 0.0 0.00 0.00 0.00 95 1049.2
20260508035348 3 19 0.0 0.0 0.00 0.00 0.00 94 1049.2
20260508034844 3 19 0.0 0.0 0.00 0.00 0.00 94 1049.1
20260508034342 3 19 0.0 0.0 0.00 0.00 0.00 94 1049.3
20260508033838 3 19 0.0 0.0 0.00 0.00 0.00 94 1049.3
20260508033337 3 19 0.0 0.0 0.00 0.00 0.00 94 1049.6
20260508032834 3 19 0.0 0.0 0.00 0.00 0.00 94 1049.3
20260508032331 3 19 0.0 0.0 0.00 0.00 0.00 94 1049.3
20260508031827 3 19 0.0 0.0 0.00 0.00 0.00 94 1049.5
20260508031324 3 19 0.0 0.0 0.00 0.00 0.00 93 1049.4
20260508030821 3 19 0.0 0.0 0.00 0.00 0.00 93 1049.3
20260508030318 4 19 0.0 0.0 0.00 0.00 0.00 93 1049.5
20260508025814 4 19 0.0 0.0 0.00 0.00 0.00 93 1049.3
20260508025312 4 19 0.0 0.0 0.00 0.00 0.00 93 1049.3
20260508024808 4 19 0.0 0.0 0.00 0.00 0.00 93 1049.2
20260508024305 4 19 0.0 0.0 0.00 0.00 0.00 92 1049.3
20260508023802 4 19 0.0 0.0 0.00 0.00 0.00 92 1049.3
20260508023259 4 19 0.0 0.0 0.00 0.00 0.00 92 1049.2
20260508022754 5 19 0.0 0.0 0.00 0.00 0.00 91 1049.1
20260508022251 5 19 0.0 0.0 0.00 0.00 0.00 91 1049.2
20260508021748 5 19 0.0 0.0 0.00 0.00 0.00 91 1049.0
20260508021243 5 19 0.0 0.0 0.00 0.00 0.00 90 1049.2
20260508020741 5 19 0.0 0.0 0.00 0.00 0.00 91 1048.9
20260508020238 5 19 0.0 0.0 0.00 0.00 0.00 89 1049.1
20260508015735 5 19 0.0 0.0 0.00 0.00 0.00 89 1049.0
20260508015232 5 19 0.0 0.0 0.00 0.00 0.00 88 1048.7
20260508014729 5 19 0.0 0.0 0.00 0.00 0.00 88 1048.6
20260508014226 6 19 0.0 0.0 0.00 0.00 0.00 88 1048.5
20260508013721 6 19 0.0 0.0 0.00 0.00 0.00 87 1048.5
20260508013218 6 19 0.0 0.0 0.00 0.00 0.00 86 1048.5
20260508012716 6 19 0.0 0.0 0.00 0.00 0.00 86 1048.4
20260508012213 7 19 0.0 0.0 0.00 0.00 0.00 86 1048.4
20260508011711 7 19 0.0 0.0 0.00 0.00 0.00 84 1048.4
20260508011208 7 19 0.0 0.0 0.00 0.00 0.00 84 1048.4
20260508010705 7 19 0.0 0.0 0.00 0.00 0.00 84 1048.3
20260508010203 8 19 0.0 0.0 0.00 0.00 0.00 84 1048.3
20260508005700 8 19 0.0 0.0 0.00 0.00 0.00 82 1048.1
20260508005156 8 19 0.0 0.0 0.00 0.00 0.00 79 1048.0
20260508004652 8 19 0.0 0.0 0.00 0.00 0.00 78 1047.9
20260508004148 9 19 0.0 0.0 0.00 0.00 0.00 77 1048.1
20260508003645 10 19 0.0 0.0 0.00 0.00 0.00 79 1047.9
20260508003143 11 19 0.0 0.0 0.00 0.00 0.00 75 1047.9
20260508002639 11 19 0.0 0.0 0.00 0.00 0.00 75 1047.7
20260508002137 11 19 0.0 0.0 0.00 0.00 0.00 72 1048.0
20260508001638 12 19 0.0 0.0 0.00 0.00 0.00 67 1047.8
20260508001134 12 19 0.0 0.0 0.00 0.00 0.00 56 1047.6